Location: El Centro
(32.7920°N, 115.5620°W)
Time: 10:45:18
(UTC-07:00)

Hamsat - Visible Passes

Search period start: 23 April 2017 00:00
Search period end: 03 May 2017 00:00
Orbit: 586 x 618 km, 97.6° (Epoch: 21 April)

Date Brightness Start Highest point End Pass type
(mag) Time Alt. Az. Time Alt. Az. Time Alt. Az.
23 Apr ? 04:10:56 10° NE 04:14:42 29° E 04:18:26 10° SSE visible
24 Apr ? 04:22:25 10° NNE 04:26:31 40° E 04:30:33 10° S visible
25 Apr ? 04:34:02 10° NNE 04:38:18 57° E 04:42:31 10° S visible
26 Apr ? 04:45:44 10° NNE 04:50:04 82° E 04:54:22 10° S visible
27 Apr ? 04:57:30 10° N 05:01:49 71° WNW 05:06:05 10° SSW visible
28 Apr ? 03:36:50 10° E 03:37:33 10° E 03:38:16 10° ESE visible
28 Apr ? 05:09:22 10° N 05:13:33 50° WNW 05:17:41 10° SSW visible
29 Apr ? 03:46:58 10° ENE 03:49:25 15° E 03:51:50 10° SE visible
29 Apr ? 05:21:18 10° N 05:25:15 36° WNW 05:29:10 10° SW visible
30 Apr ? 03:58:01 10° NE 04:01:15 20° E 04:04:27 10° SE visible
01 May ? 04:09:20 10° NE 04:13:05 28° E 04:16:45 10° SSE visible
02 May ? 04:20:50 10° NNE 04:24:52 39° E 04:28:52 10° SSE visible
